H-2A R/B - Orbit

View from above orbital plane
View from above orbital plane
View from above satellite
View from above satellite

Ground track
Ground track

The orbit data is extracted from the following two-line orbital elements,

1 27601U 02056E   13140.21034133  .00000184  00000-0  83534-4 0  8107
2 27601 098.5062 226.4414 0072759 020.4582 031.9148 14.31142617544797
Epoch (UTC): 20 May 2013 05:02:53
Eccentricity: 0.0072759
inclination: 98.5062°
perigee height: 736 km
apogee height: 840 km
right ascension of ascending node: 226.4414°
argument of perigee: 20.4582°
revolutions per day: 14.31142617
mean anomaly at epoch: 31.9148°
orbit number at epoch: 54479

The dashed part of the orbit path shows where the satellite is in the earth's shadow,  

Developed and maintained by Chris Peat, Heavens-Above GmbH. Please read the updated FAQ before sending e-mail. Imprint. DLR